Check out our new BloomSky Weather System.

Active alerts

Houston, TX
  Details for Houston, TX Special Weather Statement
Fort Bend, TX
  Details for Fort Bend, TX Special Weather Statement


Thunder radar  blitzortung!


Rain radar more information rain snow radar


Visit our other weather sites:

Template documentation
and downloads

And another site



Weather Underground History page Text

Daily Summary for February 1, 2018 Units:  Metric    English   Both
« Previous Day
Next Day »
Daily Weekly Monthly Yearly Custom
  High: Low: Average:
Temperature: -17.8 °C 12.7 °C 18.4 °C
Dew Point: -17.8 °C 8.1 °C 14.2 °C
Humidity: Humidity % 52 % 77 %
Wind Speed: 0 km/h 0 km/h 4.2 km/h
Wind Gust: 0 km/h - -
Wind:- - WSW
Pressure: 0 hPa 1014.4 hPa -
Precipitation: 0 mm    
Historical Graphs
 
 
Tabular Data for February 1, 2018
Time Temperature Dew Point Pressure Wind Wind Speed Wind Gust Humidity Rainfall Rate (Hourly)
-17.8 °C -17.8 °C 0 hPa Calm     Humidity % 0 mm
00:04 15.4 °C 13.4 °C 1014.8 hPa South 8 km/h 22.5 km/h 88 % 0 mm
00:09 15.5 °C 13.5 °C 1014.8 hPa SSE 6.4 km/h 17.7 km/h 88 % 0 mm
00:14 15.6 °C 13.6 °C 1014.8 hPa South 3.2 km/h 20.9 km/h 88 % 0 mm
00:19 15.7 °C 13.7 °C 1014.8 hPa SSE 4.8 km/h 20.9 km/h 88 % 0 mm
00:24 15.7 °C 13.7 °C 1014.8 hPa SSW 9.7 km/h 20.9 km/h 88 % 0 mm
00:29 15.7 °C 13.7 °C 1014.8 hPa SW 11.3 km/h 19.3 km/h 88 % 0 mm
00:34 15.7 °C 13.7 °C 1014.8 hPa SSE 3.2 km/h 19.3 km/h 88 % 0 mm
00:39 15.7 °C 13.7 °C 1014.8 hPa SSW 6.4 km/h 17.7 km/h 88 % 0 mm
00:44 15.7 °C 13.7 °C 1014.8 hPa SE 4.8 km/h 17.7 km/h 88 % 0 mm
00:49 15.7 °C 13.9 °C 1014.8 hPa SSW 9.7 km/h 17.7 km/h 89 % 0 mm
00:54 15.7 °C 13.9 °C 1014.8 hPa South 4.8 km/h 17.7 km/h 89 % 0 mm
00:59 15.7 °C 13.9 °C 1014.4 hPa SSE 4.8 km/h 17.7 km/h 89 % 0 mm
01:04 15.7 °C 13.9 °C 1014.4 hPa South 6.4 km/h 14.5 km/h 89 % 0 mm
01:09 15.7 °C 13.9 °C 1014.8 hPa SW 4.8 km/h 14.5 km/h 89 % 0 mm
01:14 15.6 °C 13.8 °C 1014.8 hPa SSW 4.8 km/h 14.5 km/h 89 % 0 mm
01:19 15.6 °C 13.8 °C 1014.8 hPa SSW 6.4 km/h 12.9 km/h 89 % 0 mm
01:24 15.6 °C 13.8 °C 1014.8 hPa SSW 3.2 km/h 12.9 km/h 89 % 0 mm
01:29 15.6 °C 13.8 °C 1014.8 hPa South 4.8 km/h 12.9 km/h 89 % 0 mm
01:34 15.6 °C 14 °C 1014.8 hPa SSW 9.7 km/h 11.3 km/h 90 % 0 mm
01:39 15.6 °C 14 °C 1014.8 hPa SSW 6.4 km/h 14.5 km/h 90 % 0 mm
01:45 15.6 °C 13.8 °C 1014.8 hPa South 1.6 km/h 14.5 km/h 89 % 0 mm
01:50 15.6 °C 14 °C 1014.8 hPa SSW 3.2 km/h 14.5 km/h 90 % 0 mm
01:55 15.5 °C 13.9 °C 1014.8 hPa SW 4.8 km/h 11.3 km/h 90 % 0 mm
02:00 15.5 °C 13.9 °C 1014.8 hPa SSW 6.4 km/h 9.7 km/h 90 % 0 mm
02:05 15.5 °C 13.9 °C 1014.4 hPa SSW 4.8 km/h 12.9 km/h 90 % 0 mm
02:10 15.5 °C 13.9 °C 1014.4 hPa SSW 3.2 km/h 12.9 km/h 90 % 0 mm
02:15 15.4 °C 13.8 °C 1014.4 hPa SSW 6.4 km/h 12.9 km/h 90 % 0 mm
02:20 15.3 °C 13.7 °C 1014.4 hPa South 1.6 km/h 12.9 km/h 90 % 0 mm
02:21 15.3 °C 13.7 °C 1014.4 hPa South 3.2 km/h 12.9 km/h 90 % 0 mm
02:26 15.3 °C 13.8 °C 1014.4 hPa SSW 3.2 km/h 12.9 km/h 91 % 0 mm
02:31 15.2 °C 13.7 °C 1014.4 hPa Calm   9.7 km/h 91 % 0 mm
02:36 15.1 °C 13.6 °C 1014.4 hPa Calm   6.4 km/h 91 % 0 mm
02:41 15.1 °C 13.6 °C 1014.4 hPa SSW 3.2 km/h 4.8 km/h 91 % 0 mm
02:46 15 °C 13.5 °C 1014.4 hPa South 3.2 km/h 4.8 km/h 91 % 0 mm
02:51 14.9 °C 13.6 °C 1014.4 hPa SW 3.2 km/h 4.8 km/h 92 % 0 mm
02:56 14.9 °C 13.6 °C 1014.4 hPa SSE 3.2 km/h 6.4 km/h 92 % 0 mm
03:01 14.9 °C 13.6 °C 1014.4 hPa SSE 3.2 km/h 8 km/h 92 % 0 mm
03:06 14.9 °C 13.6 °C 1014.4 hPa SSW 1.6 km/h 11.3 km/h 92 % 0 mm
03:12 14.9 °C 13.6 °C 1014.4 hPa South 1.6 km/h 11.3 km/h 92 % 0 mm
03:17 14.9 °C 13.6 °C 1014.4 hPa SSW 1.6 km/h 11.3 km/h 92 % 0 mm
03:22 14.8 °C 13.5 °C 1014.4 hPa SSE 6.4 km/h 6.4 km/h 92 % 0 mm
03:27 14.8 °C 13.7 °C 1014.4 hPa SSW 1.6 km/h 6.4 km/h 93 % 0 mm
03:32 14.8 °C 13.7 °C 1014.4 hPa South 1.6 km/h 6.4 km/h 93 % 0 mm
03:37 14.7 °C 13.6 °C 1014.4 hPa Calm   6.4 km/h 93 % 0 mm
03:42 14.6 °C 13.5 °C 1014.4 hPa South 1.6 km/h 6.4 km/h 93 % 0 mm
03:47 14.6 °C 13.5 °C 1014.4 hPa SSW 1.6 km/h 3.2 km/h 93 % 0 mm
03:52 14.5 °C 13.5 °C 1014.4 hPa SSW 1.6 km/h 4.8 km/h 94 % 0 mm
03:57 14.4 °C 13.4 °C 1014.4 hPa South 1.6 km/h 4.8 km/h 94 % 0 mm
04:02 14.4 °C 13.4 °C 1014.4 hPa SSE 3.2 km/h 4.8 km/h 94 % 0 mm
04:07 14.4 °C 13.4 °C 1014.4 hPa SE 3.2 km/h 8 km/h 94 % 0 mm
04:12 14.4 °C 13.4 °C 1014.4 hPa Calm   8 km/h 94 % 0 mm
04:17 14.3 °C 13.3 °C 1014.4 hPa SSW 1.6 km/h 8 km/h 94 % 0 mm
04:22 14.4 °C 13.6 °C 1014.4 hPa SSW 1.6 km/h 4.8 km/h 95 % 0 mm
04:27 14.4 °C 13.6 °C 1014.4 hPa Calm   4.8 km/h 95 % 0 mm
04:32 14.5 °C 13.7 °C 1014.4 hPa SW 3.2 km/h 4.8 km/h 95 % 0 mm
04:37 14.6 °C 13.8 °C 1014.4 hPa SSE 4.8 km/h 4.8 km/h 95 % 0 mm
04:42 14.6 °C 13.8 °C 1014.4 hPa SE 1.6 km/h 4.8 km/h 95 % 0 mm
04:47 14.6 °C 13.8 °C 1014.4 hPa Calm   4.8 km/h 95 % 0 mm
04:52 14.4 °C 13.6 °C 1014.4 hPa Calm   4.8 km/h 95 % 0 mm
04:57 14.3 °C 13.5 °C 1014.4 hPa Calm   3.2 km/h 95 % 0 mm
05:02 14.1 °C 13.1 °C 1014.4 hPa Calm   3.2 km/h 94 % 0 mm
05:07 13.9 °C 12.9 °C 1014.4 hPa Calm   1.6 km/h 94 % 0 mm
05:12 13.8 °C 12.9 °C 1014.4 hPa Calm   1.6 km/h 94 % 0 mm
05:17 13.7 °C 12.8 °C 1014.4 hPa Calm   1.6 km/h 94 % 0 mm
05:22 13.6 °C 12.8 °C 1014.4 hPa Calm   1.6 km/h 95 % 0 mm
05:28 13.6 °C 12.8 °C 1014.4 hPa SSE 1.6 km/h 1.6 km/h 95 % 0 mm
05:33 13.6 °C 12.8 °C 1014.4 hPa Calm   1.6 km/h 95 % 0 mm
05:38 13.6 °C 12.8 °C 1014.4 hPa SSE 1.6 km/h 1.6 km/h 95 % 0 mm
05:43 13.6 °C 13 °C 1014.4 hPa Calm   1.6 km/h 96 % 0 mm
05:48 13.5 °C 12.7 °C 1014.4 hPa Calm   1.6 km/h 95 % 0 mm
05:53 13.4 °C 12.6 °C 1014.4 hPa Calm   1.6 km/h 95 % 0 mm
05:58 13.4 °C 12.8 °C 1014.4 hPa Calm   1.6 km/h 96 % 0 mm
06:03 13.3 °C 12.7 °C 1014.8 hPa Calm   1.6 km/h 96 % 0 mm
06:08 13.3 °C 12.7 °C 1014.8 hPa Calm   1.6 km/h 96 % 0 mm
06:13 13.3 °C 12.7 °C 1014.8 hPa Calm     96 % 0 mm
06:18 13.2 °C 12.6 °C 1015.1 hPa Calm     96 % 0 mm
06:23 13.2 °C 12.6 °C 1015.1 hPa Calm     96 % 0 mm
06:28 13.1 °C 12.5 °C 1014.8 hPa Calm     96 % 0 mm
06:33 13.1 °C 12.5 °C 1014.8 hPa Calm     96 % 0 mm
06:38 12.9 °C 12.3 °C 1015.1 hPa Calm     96 % 0 mm
06:43 12.9 °C 12.3 °C 1015.1 hPa Calm     96 % 0 mm
06:48 13 °C 12.5 °C 1015.1 hPa Calm     97 % 0 mm
06:53 13.1 °C 12.6 °C 1015.1 hPa Calm   1.6 km/h 97 % 0 mm
06:58 13.1 °C 12.6 °C 1015.1 hPa Calm   1.6 km/h 97 % 0 mm
07:03 13.1 °C 12.6 °C 1015.1 hPa Calm   1.6 km/h 97 % 0 mm
07:08 12.9 °C 12.3 °C 1015.1 hPa Calm   1.6 km/h 96 % 0 mm
07:13 12.8 °C 12.2 °C 1015.1 hPa Calm   1.6 km/h 96 % 0 mm
07:18 12.7 °C 12.2 °C 1015.1 hPa Calm   1.6 km/h 97 % 0 mm
07:23 12.7 °C 12.2 °C 1015.1 hPa Calm   1.6 km/h 97 % 0 mm
07:28 12.8 °C 12.3 °C 1015.1 hPa Calm   1.6 km/h 97 % 0 mm
07:33 12.9 °C 12.4 °C 1015.1 hPa Calm   1.6 km/h 97 % 0 mm
07:38 12.9 °C 12.4 °C 1015.1 hPa Calm   1.6 km/h 97 % 0 mm
07:43 13.2 °C 12.7 °C 1015.5 hPa Calm   1.6 km/h 97 % 0 mm
07:48 13.3 °C 13 °C 1015.5 hPa Calm   1.6 km/h 98 % 0 mm
07:53 13.4 °C 12.9 °C 1015.5 hPa Calm   1.6 km/h 97 % 0 mm
07:58 13.4 °C 12.9 °C 1015.5 hPa Calm   1.6 km/h 97 % 0 mm
08:03 13.5 °C 13 °C 1015.5 hPa Calm   1.6 km/h 97 % 0 mm
08:08 13.6 °C 13.3 °C 1015.5 hPa Calm   1.6 km/h 98 % 0 mm
08:13 13.7 °C 13.4 °C 1015.5 hPa SE 1.6 km/h   98 % 0 mm
08:18 13.9 °C 13.6 °C 1015.5 hPa SSE 1.6 km/h 1.6 km/h 98 % 0 mm
08:23 14 °C 13.7 °C 1015.8 hPa South 1.6 km/h 3.2 km/h 98 % 0 mm
08:28 14.2 °C 13.9 °C 1015.8 hPa ESE 1.6 km/h 4.8 km/h 98 % 0 mm
08:33 14.3 °C 14 °C 1015.8 hPa Calm   4.8 km/h 98 % 0 mm
08:38 14.6 °C 14.3 °C 1015.8 hPa Calm   4.8 km/h 98 % 0 mm
08:43 14.8 °C 14.5 °C 1015.8 hPa SSE 1.6 km/h 4.8 km/h 98 % 0 mm
08:48 14.9 °C 14.6 °C 1016.1 hPa SE 1.6 km/h 4.8 km/h 98 % 0 mm
08:53 15.1 °C 14.8 °C 1016.1 hPa SE 1.6 km/h 4.8 km/h 98 % 0 mm
08:58 15.3 °C 15 °C 1016.1 hPa SSW 1.6 km/h 4.8 km/h 98 % 0 mm
09:03 15.6 °C 15.3 °C 1016.1 hPa SW 1.6 km/h 6.4 km/h 98 % 0 mm
09:08 15.8 °C 15.5 °C 1016.5 hPa Calm   6.4 km/h 98 % 0 mm
09:13 16.1 °C 15.8 °C 1016.5 hPa SSW 3.2 km/h 6.4 km/h 98 % 0 mm
09:18 16.3 °C 15.8 °C 1016.5 hPa SSW 3.2 km/h 6.4 km/h 97 % 0 mm
09:23 16.5 °C 16 °C 1016.5 hPa SSE 4.8 km/h 6.4 km/h 97 % 0 mm
09:28 16.7 °C 16.1 °C 1016.5 hPa SSE 4.8 km/h 8 km/h 96 % 0 mm
09:33 16.9 °C 16.3 °C 1016.5 hPa SSW 3.2 km/h 8 km/h 96 % 0 mm
09:38 17.1 °C 16.3 °C 1016.5 hPa SSE 3.2 km/h 11.3 km/h 95 % 0 mm
09:43 17.2 °C 16.4 °C 1016.5 hPa SSE 3.2 km/h 12.9 km/h 95 % 0 mm
09:48 17.4 °C 16.4 °C 1016.8 hPa SSW 3.2 km/h 12.9 km/h 94 % 0 mm
09:53 17.7 °C 16.7 °C 1016.8 hPa South 6.4 km/h 12.9 km/h 94 % 0 mm
09:58 17.9 °C 16.9 °C 1016.8 hPa SSW 8 km/h 11.3 km/h 94 % 0 mm
10:03 18.2 °C 16.9 °C 1016.8 hPa South 11.3 km/h 11.3 km/h 92 % 0 mm
10:08 18.4 °C 17.1 °C 1016.5 hPa SE 3.2 km/h 16.1 km/h 92 % 0 mm
10:13 18.7 °C 17.2 °C 1016.5 hPa SW 6.4 km/h 16.1 km/h 91 % 0 mm
10:18 19 °C 17.5 °C 1016.8 hPa SE 6.4 km/h 16.1 km/h 91 % 0 mm
10:23 19.2 °C 17.5 °C 1016.8 hPa South 6.4 km/h 12.9 km/h 90 % 0 mm
10:28 19.5 °C 17.6 °C 1016.8 hPa SSE 3.2 km/h 17.7 km/h 89 % 0 mm
10:33 19.9 °C 17.9 °C 1016.8 hPa SSE 6.4 km/h 17.7 km/h 88 % 0 mm
10:38 20.3 °C 18.2 °C 1016.8 hPa SW 9.7 km/h 17.7 km/h 88 % 0 mm
10:43 20.4 °C 18 °C 1016.8 hPa SSW 6.4 km/h 16.1 km/h 86 % 0 mm
10:48 20.7 °C 18.3 °C 1016.8 hPa SSE 3.2 km/h 17.7 km/h 86 % 0 mm
10:53 20.8 °C 18 °C 1016.8 hPa SW 12.9 km/h 17.7 km/h 84 % 0 mm
10:58 20.9 °C 18.1 °C 1016.5 hPa South 11.3 km/h 19.3 km/h 84 % 0 mm
11:03 21.2 °C 18.2 °C 1016.5 hPa South 3.2 km/h 19.3 km/h 83 % 0 mm
11:08 21.4 °C 18 °C 1016.5 hPa South 4.8 km/h 19.3 km/h 81 % 0 mm
11:13 21.5 °C 18.1 °C 1016.5 hPa SSW 9.7 km/h 17.7 km/h 81 % 0 mm
11:18 21.6 °C 18.2 °C 1016.5 hPa SE 1.6 km/h 19.3 km/h 81 % 0 mm
11:23 21.9 °C 18.3 °C 1016.8 hPa WNW 3.2 km/h 19.3 km/h 80 % 0 mm
11:28 22.1 °C 18.1 °C 1016.8 hPa NW 4.8 km/h 19.3 km/h 78 % 0 mm
11:33 22.2 °C 18 °C 1016.5 hPa SW 16.1 km/h 16.1 km/h 77 % 0 mm
11:38 22.1 °C 17.7 °C 1016.5 hPa North 3.2 km/h 22.5 km/h 76 % 0 mm
11:43 22 °C 17.8 °C 1016.1 hPa SSW 12.9 km/h 22.5 km/h 77 % 0 mm
11:48 22.2 °C 18 °C 1016.1 hPa SSW 24.1 km/h 24.1 km/h 77 % 0 mm
11:53 22.3 °C 17.9 °C 1016.1 hPa ESE 8 km/h 24.1 km/h 76 % 0 mm
11:56 22.3 °C 18.1 °C 1016.1 hPa SSW 9.7 km/h 24.1 km/h 77 % 0 mm
12:01 22.4 °C 18 °C 1015.8 hPa SSE 11.3 km/h 24.1 km/h 76 % 0 mm
12:06 22.4 °C 18 °C 1015.8 hPa SW 9.7 km/h 20.9 km/h 76 % 0 mm
12:11 22.6 °C 18.2 °C 1015.8 hPa SW 9.7 km/h 20.9 km/h 76 % 0 mm
12:16 23 °C 18.3 °C 1015.5 hPa SSW 11.3 km/h 22.5 km/h 75 % 0 mm
12:21 23.4 °C 18.5 °C 1015.5 hPa SW 11.3 km/h 22.5 km/h 74 % 0 mm
12:26 23.6 °C 18.7 °C 1015.5 hPa NW 1.6 km/h 22.5 km/h 74 % 0 mm
12:31 23.7 °C 18.1 °C 1015.5 hPa South 3.2 km/h 22.5 km/h 71 % 0 mm
12:36 23.7 °C 18.4 °C 1015.5 hPa WSW 4.8 km/h 22.5 km/h 72 % 0 mm
12:42 23.7 °C 18.4 °C 1015.5 hPa WSW 1.6 km/h 16.1 km/h 72 % 0 mm
12:47 23.7 °C 18.1 °C 1015.5 hPa SW 6.4 km/h 16.1 km/h 71 % 0 mm
12:52 23.8 °C 18 °C 1015.5 hPa SW 4.8 km/h 16.1 km/h 70 % 0 mm
12:57 23.9 °C 17.9 °C 1015.5 hPa SW 4.8 km/h 19.3 km/h 69 % 0 mm
13:02 24.1 °C 17.8 °C 1015.5 hPa SSW 12.9 km/h 19.3 km/h 68 % 0 mm
13:07 24.2 °C 17.7 °C 1015.1 hPa SSW 3.2 km/h 19.3 km/h 67 % 0 mm
13:12 24.3 °C 18.2 °C 1015.1 hPa SW 11.3 km/h 19.3 km/h 69 % 0 mm
13:17 24.7 °C 18.2 °C 1014.8 hPa SSW 8 km/h 19.3 km/h 67 % 0 mm
13:22 24.9 °C 18.1 °C 1014.8 hPa SW 4.8 km/h 19.3 km/h 66 % 0 mm
13:27 24.9 °C 17.9 °C 1014.8 hPa South 9.7 km/h 14.5 km/h 65 % 0 mm
13:32 24.8 °C 17.8 °C 1014.8 hPa SW 9.7 km/h 14.5 km/h 65 % 0 mm
13:37 24.7 °C 17.9 °C 1014.8 hPa South 4.8 km/h 16.1 km/h 66 % 0 mm
13:42 24.8 °C 18 °C 1014.8 hPa SSW 12.9 km/h 16.1 km/h 66 % 0 mm
13:47 24.8 °C 17.8 °C 1014.8 hPa SW 8 km/h 16.1 km/h 65 % 0 mm
13:52 24.8 °C 17.8 °C 1014.8 hPa WSW 6.4 km/h 19.3 km/h 65 % 0 mm
13:57 24.9 °C 17.9 °C 1014.4 hPa SSW 4.8 km/h 19.3 km/h 65 % 0 mm
14:02 25 °C 17.7 °C 1014.4 hPa NW 4.8 km/h 19.3 km/h 64 % 0 mm
14:07 25.1 °C 17.8 °C 1014.4 hPa SW 3.2 km/h 16.1 km/h 64 % 0 mm
14:12 25.2 °C 17.7 °C 1014.4 hPa SSW 3.2 km/h 16.1 km/h 63 % 0 mm
14:17 25.3 °C 18 °C 1014.4 hPa SW 8 km/h 16.1 km/h 64 % 0 mm
14:21 25.3 °C 17.7 °C 1014.4 hPa NW 6.4 km/h 16.1 km/h 63 % 0 mm
14:27 25.3 °C 17.7 °C 1014.4 hPa SSW 16.1 km/h 16.1 km/h 63 % 0 mm
14:32 25.3 °C 17.5 °C 1014.4 hPa South 6.4 km/h 19.3 km/h 62 % 0 mm
14:37 25.4 °C 17.6 °C 1014.8 hPa West 3.2 km/h 19.3 km/h 62 % 0 mm
14:42 25.4 °C 17.6 °C 1014.8 hPa SSW 3.2 km/h 19.3 km/h 62 % 0 mm
14:47 25.5 °C 17.4 °C 1014.8 hPa West 1.6 km/h 16.1 km/h 61 % 0 mm
14:52 25.7 °C 17.6 °C 1014.8 hPa WSW 6.4 km/h 16.1 km/h 61 % 0 mm
14:57 25.7 °C 17.4 °C 1014.8 hPa SW 1.6 km/h 16.1 km/h 60 % 0 mm
15:02 25.9 °C 17.5 °C 1014.8 hPa WNW 3.2 km/h 11.3 km/h 60 % 0 mm
15:07 26.1 °C 17.5 °C 1014.8 hPa SW 3.2 km/h 11.3 km/h 59 % 0 mm
15:12 25.9 °C 17.5 °C 1014.8 hPa SSW 4.8 km/h 9.7 km/h 60 % 0 mm
15:17 25.8 °C 17.4 °C 1014.8 hPa ENE 1.6 km/h 8 km/h 60 % 0 mm
15:22 26.1 °C 17.7 °C 1014.8 hPa WSW 1.6 km/h 8 km/h 60 % 0 mm
15:27 26.1 °C 17.7 °C 1014.8 hPa SW 3.2 km/h 8 km/h 60 % 0 mm
15:32 25.9 °C 17.5 °C 1014.8 hPa SSW 4.8 km/h 8 km/h 60 % 0 mm
15:37 25.8 °C 17.4 °C 1014.8 hPa SW 1.6 km/h 8 km/h 60 % 0 mm
15:42 25.7 °C 17.4 °C 1015.1 hPa WNW 1.6 km/h 14.5 km/h 60 % 0 mm
15:47 25.6 °C 17.3 °C 1015.1 hPa West 1.6 km/h 14.5 km/h 60 % 0 mm
15:52 25.4 °C 17.3 °C 1015.1 hPa SW 3.2 km/h 14.5 km/h 61 % 0 mm
15:57 25.3 °C 17.2 °C 1015.1 hPa SW 1.6 km/h 12.9 km/h 61 % 0 mm
16:02 25.3 °C 17.2 °C 1015.1 hPa SSW 6.4 km/h 12.9 km/h 61 % 0 mm
16:07 25.2 °C 17.4 °C 1015.5 hPa WNW 1.6 km/h 12.9 km/h 62 % 0 mm
16:12 24.8 °C 17.5 °C 1015.5 hPa NNE 8 km/h 9.7 km/h 64 % 0 mm
16:17 24.4 °C 17.4 °C 1015.5 hPa NNW 8 km/h 11.3 km/h 65 % 0 mm
16:22 24.2 °C 17.4 °C 1015.5 hPa NNW 6.4 km/h 11.3 km/h 66 % 0 mm
16:27 24.1 °C 17.3 °C 1015.5 hPa NW 8 km/h 11.3 km/h 66 % 0 mm
16:32 23.9 °C 17.2 °C 1015.5 hPa NNW 6.4 km/h 16.1 km/h 66 % 0 mm
16:37 23.9 °C 17.2 °C 1015.5 hPa NW 9.7 km/h 16.1 km/h 66 % 0 mm
16:42 23.8 °C 17.1 °C 1015.8 hPa NW 4.8 km/h 16.1 km/h 66 % 0 mm
16:47 23.8 °C 16.8 °C 1015.8 hPa NW 9.7 km/h 12.9 km/h 65 % 0 mm
16:52 23.7 °C 16.7 °C 1015.8 hPa NNW 4.8 km/h 12.9 km/h 65 % 0 mm
16:57 23.6 °C 16.6 °C 1015.8 hPa NW 8 km/h 12.9 km/h 65 % 0 mm
17:02 23.4 °C 16.4 °C 1015.8 hPa NNW 4.8 km/h 12.9 km/h 65 % 0 mm
17:07 23.4 °C 16.4 °C 1016.1 hPa NW 8 km/h 11.3 km/h 65 % 0 mm
17:12 23.3 °C 16.3 °C 1016.1 hPa NNW 1.6 km/h 11.3 km/h 65 % 0 mm
17:17 23.2 °C 16.3 °C 1016.1 hPa NNW 6.4 km/h 11.3 km/h 65 % 0 mm
17:22 23.1 °C 16.2 °C 1016.1 hPa NW 4.8 km/h 11.3 km/h 65 % 0 mm
17:27 22.9 °C 16 °C 1016.1 hPa NNW 3.2 km/h 11.3 km/h 65 % 0 mm
17:32 22.9 °C 16 °C 1016.1 hPa NW 3.2 km/h 11.3 km/h 65 % 0 mm
17:37 22.8 °C 16.1 °C 1016.1 hPa NW 1.6 km/h 9.7 km/h 66 % 0 mm
17:42 22.7 °C 16 °C 1016.1 hPa NNW 3.2 km/h 8 km/h 66 % 0 mm
17:47 22.6 °C 15.9 °C 1016.5 hPa NW 1.6 km/h 4.8 km/h 66 % 0 mm
17:52 22.4 °C 16 °C 1016.5 hPa NW 1.6 km/h 4.8 km/h 67 % 0 mm
17:57 22.3 °C 15.9 °C 1016.5 hPa NW 1.6 km/h 3.2 km/h 67 % 0 mm
18:02 22.1 °C 15.9 °C 1016.8 hPa NW 3.2 km/h 4.8 km/h 68 % 0 mm
18:07 21.9 °C 15.7 °C 1016.8 hPa NNW 1.6 km/h 4.8 km/h 68 % 0 mm
18:12 21.8 °C 15.6 °C 1016.8 hPa NW 1.6 km/h 6.4 km/h 68 % 0 mm
18:17 21.7 °C 15.8 °C 1017.2 hPa Calm   6.4 km/h 69 % 0 mm
18:22 21.6 °C 15.7 °C 1017.2 hPa Calm   6.4 km/h 69 % 0 mm
18:27 21.3 °C 15.6 °C 1017.2 hPa Calm   3.2 km/h 70 % 0 mm
18:32 21.1 °C 15.6 °C 1017.2 hPa Calm   3.2 km/h 71 % 0 mm
18:37 20.9 °C 15.7 °C 1017.5 hPa Calm   1.6 km/h 72 % 0 mm
18:42 20.9 °C 15.7 °C 1017.5 hPa NW 1.6 km/h 3.2 km/h 72 % 0 mm
18:47 20.9 °C 15.7 °C 1017.8 hPa NW 3.2 km/h 3.2 km/h 72 % 0 mm
18:52 20.9 °C 15.7 °C 1017.8 hPa NW 4.8 km/h 8 km/h 72 % 0 mm
18:57 21 °C 15.8 °C 1017.8 hPa NW 3.2 km/h 8 km/h 72 % 0 mm
19:02 21 °C 15.8 °C 1018.2 hPa NNE 4.8 km/h 12.9 km/h 72 % 0 mm
19:07 20.9 °C 15.7 °C 1018.2 hPa NW 1.6 km/h 12.9 km/h 72 % 0 mm
19:12 20.9 °C 15.7 °C 1018.2 hPa NW 4.8 km/h 12.9 km/h 72 % 0 mm
19:17 20.8 °C 15.6 °C 1018.5 hPa NNE 6.4 km/h 11.3 km/h 72 % 0 mm
19:22 20.7 °C 15.5 °C 1018.5 hPa NW 3.2 km/h 6.4 km/h 72 % 0 mm
19:27 20.7 °C 15.5 °C 1018.5 hPa NW 3.2 km/h 6.4 km/h 72 % 0 mm
19:32 20.6 °C 15.4 °C 1018.8 hPa North 12.9 km/h 12.9 km/h 72 % 0 mm
19:37 20.3 °C 14 °C 1018.8 hPa NW 11.3 km/h 22.5 km/h 67 % 0 mm
19:42 20.1 °C 13.5 °C 1019.2 hPa NNW 4.8 km/h 22.5 km/h 66 % 0 mm
19:47 19.9 °C 13.1 °C 1019.2 hPa NW 3.2 km/h 22.5 km/h 65 % 0 mm
19:52 19.7 °C 12.5 °C 1019.2 hPa NNW 4.8 km/h 20.9 km/h 63 % 0 mm
19:57 19.4 °C 11.4 °C 1019.5 hPa NNW 9.7 km/h 12.9 km/h 60 % 0 mm
20:02 19.3 °C 10.6 °C 1019.5 hPa NNW 11.3 km/h 12.9 km/h 57 % 0 mm
20:07 19.2 °C 10.2 °C 1019.9 hPa NW 8 km/h 17.7 km/h 56 % 0 mm
20:12 19.1 °C 9.6 °C 1019.9 hPa NW 12.9 km/h 17.7 km/h 54 % 0 mm
20:17 19 °C 8.9 °C 1019.9 hPa NW 12.9 km/h 17.7 km/h 52 % 0 mm
20:22 18.9 °C 8.8 °C 1019.9 hPa NW 8 km/h 19.3 km/h 52 % 0 mm
20:27 18.8 °C 8.7 °C 1020.2 hPa NW 8 km/h 19.3 km/h 52 % 0 mm
20:32 18.7 °C 8.6 °C 1020.2 hPa NNW 8 km/h 19.3 km/h 52 % 0 mm
20:37 18.6 °C 8.6 °C 1020.2 hPa NW 8 km/h 12.9 km/h 52 % 0 mm
20:42 18.4 °C 8.4 °C 1020.2 hPa NW 8 km/h 11.3 km/h 52 % 0 mm
20:47 18.4 °C 8.4 °C 1020.5 hPa NNW 14.5 km/h 14.5 km/h 52 % 0 mm
20:52 18.3 °C 8.3 °C 1020.5 hPa NW 4.8 km/h 14.5 km/h 52 % 0 mm
20:57 18.3 °C 8.3 °C 1020.5 hPa NNW 1.6 km/h 14.5 km/h 52 % 0 mm
21:02 18.2 °C 8.2 °C 1020.5 hPa NNW 3.2 km/h 14.5 km/h 52 % 0 mm
21:07 18.2 °C 8.2 °C 1020.5 hPa NW 3.2 km/h 14.5 km/h 52 % 0 mm
21:12 18.1 °C 8.1 °C 1020.5 hPa North 4.8 km/h 14.5 km/h 52 % 0 mm
21:17 18 °C 8.3 °C 1020.5 hPa NW 4.8 km/h 14.5 km/h 53 % 0 mm
21:22 17.9 °C 8.2 °C 1020.5 hPa NW 6.4 km/h 11.3 km/h 53 % 0 mm
21:27 17.8 °C 8.1 °C 1020.5 hPa NW 3.2 km/h 12.9 km/h 53 % 0 mm
21:32 17.8 °C 8.1 °C 1020.9 hPa NW 3.2 km/h 12.9 km/h 53 % 0 mm
21:37 17.7 °C 8.3 °C 1020.9 hPa NNW 4.8 km/h 12.9 km/h 54 % 0 mm
21:42 17.7 °C 8.3 °C 1020.9 hPa NNW 6.4 km/h 12.9 km/h 54 % 0 mm
21:47 17.6 °C 8.5 °C 1020.9 hPa NW 6.4 km/h 12.9 km/h 55 % 0 mm
21:52 17.5 °C 8.4 °C 1020.9 hPa NW 3.2 km/h 12.9 km/h 55 % 0 mm
21:57 17.4 °C 8.3 °C 1020.9 hPa NW 3.2 km/h 12.9 km/h 55 % 0 mm
22:02 17.3 °C 8.4 °C 1021.2 hPa NW 4.8 km/h 9.7 km/h 56 % 0 mm
22:07 17.3 °C 8.4 °C 1021.2 hPa NW 4.8 km/h 14.5 km/h 56 % 0 mm
22:12 17.3 °C 8.4 °C 1021.2 hPa NW 6.4 km/h 14.5 km/h 56 % 0 mm
22:17 17.2 °C 8.6 °C 1021.6 hPa NNW 3.2 km/h 14.5 km/h 57 % 0 mm
22:22 17.2 °C 8.6 °C 1021.6 hPa NW 4.8 km/h 9.7 km/h 57 % 0 mm
22:27 17.2 °C 8.6 °C 1021.6 hPa West 6.4 km/h 11.3 km/h 57 % 0 mm
22:32 17.1 °C 8.8 °C 1021.6 hPa NW 6.4 km/h 11.3 km/h 58 % 0 mm
22:37 17.1 °C 8.8 °C 1021.6 hPa NW 3.2 km/h 16.1 km/h 58 % 0 mm
22:42 16.9 °C 8.8 °C 1021.6 hPa NW 4.8 km/h 16.1 km/h 59 % 0 mm
22:47 16.8 °C 9 °C 1021.6 hPa NW 4.8 km/h 17.7 km/h 60 % 0 mm
22:52 16.7 °C 8.9 °C 1021.6 hPa WNW 1.6 km/h 17.7 km/h 60 % 0 mm
22:58 16.6 °C 9 °C 1021.6 hPa NNW 1.6 km/h 17.7 km/h 61 % 0 mm
23:03 16.4 °C 8.9 °C 1021.6 hPa North 6.4 km/h 9.7 km/h 61 % 0 mm
23:08 16.3 °C 9 °C 1021.6 hPa NNW 3.2 km/h 9.7 km/h 62 % 0 mm
23:13 16.2 °C 9.1 °C 1021.6 hPa NNW 9.7 km/h 9.7 km/h 63 % 0 mm
23:18 16.1 °C 9.1 °C 1021.6 hPa NNW 4.8 km/h 9.7 km/h 63 % 0 mm
23:23 16 °C 9.2 °C 1021.6 hPa NNW 4.8 km/h 11.3 km/h 64 % 0 mm
23:28 15.8 °C 9.2 °C 1021.6 hPa WNW 3.2 km/h 11.3 km/h 65 % 0 mm
23:33 15.8 °C 9.2 °C 1021.9 hPa North 3.2 km/h 11.3 km/h 65 % 0 mm
23:38 15.7 °C 9.4 °C 1021.9 hPa NNW 4.8 km/h 11.3 km/h 66 % 0 mm
23:43 15.7 °C 9.6 °C 1021.9 hPa NNW 4.8 km/h 11.3 km/h 67 % 0 mm
23:48 15.7 °C 9.6 °C 1021.9 hPa NW 1.6 km/h 11.3 km/h 67 % 0 mm
23:53 15.7 °C 9.8 °C 1021.9 hPa NW 3.2 km/h 11.3 km/h 68 % 0 mm
23:58 15.7 °C 9.8 °C 1022.2 hPa North 3.2 km/h 11.3 km/h 68 % 0 mm
Spring, Texas: Villages of Bridgestone
Compliments of Weather Underground - 2.75 mb

Script developed by  Jim McMurry - jmcmurry@mwt.net Adapted for the template by  Wim van der Kuil - Leuven-Template.eu

You find our weather info also at:

UK Metoffice

WeatherCloud

Weather Underground

Mid-South Weather Network

AWEKAS

Citizen Weather Observer Program (CWOP)

HAMweather, WeatherForYou, PWS Weather

Equipment we use:

Weather-station
Davis Vantage Vue

Weather-program
Meteohub

Weather-server
Debian 7.9 x86 (Guest)

Provider
DreamHost

Davis Vantage Vue

Meteohub

Debian 7.9 x86 (Guest)

DreamHost